Regional Weather Roundup
Issued by NWS

Home | Current Version | Previous Version | Graphics & Text | Print | Product List | Glossary On
Versions: 1 2 3 4 5 6 7 8 9 10 11 12 13 14 15 16 17 18 19 20 21 22 23 24 25 26 27 28 29 30 31 32 33 34 35 36 37 38 39 40 41 42 43 44 45 46 47 48 49 50
237
ASUS43 KOAX 291102
RWRNE

WEATHER ROUNDUP FOR NEBRASKA
NATIONAL WEATHER SERVICE OMAHA NE
600 AM CDT MON AUG 29 2016

NOTES: SATELLITE DATA IS BEING USED TO AUGMENT CLOUD COVER ABOVE
       12000 FEET.
       "FAIR" INDICATES FEW OR NO CLOUDS BELOW 12,000 FEET WITH NO
       SIGNIFICANT WEATHER AND/OR OBSTRUCTIONS TO VISIBILITY.

  * THESE STATIONS DO NOT REPORT WEATHER SUCH AS RAIN...SNOW OR FOG.

NEZ001>004-019>022-054>056-291200-
NEBRASKA PANHANDLE

CITY           SKY/WX    TMP DP  RH WIND       PRES   REMARKS
SCOTTSBLUFF    CLEAR     55  51  86 NE3       30.19R
ALLIANCE       CLEAR     53  51  93 CALM      30.18R
CHADRON        CLOUDY    56  51  84 S3        30.14R
KIMBALL        CLOUDY    55  50  85 W6        30.24S
SIDNEY         CLOUDY    56  50  80 W10G22    30.22R
$$

NEZ057>060-069>072-079>082-291200-
SOUTHWEST NEBRASKA

CITY           SKY/WX    TMP DP  RH WIND       PRES   REMARKS
NORTH PLATTE   PTCLDY    65  62  90 SE7       30.17R
IMPERIAL       CLEAR     64  61  90 E10       30.17R
LEXINGTON      CLOUDY    67  64  88 S5        30.17S
MCCOOK         CLOUDY    65  63  93 E10       30.19S THUNDER
OGALLALA       CLEAR     59  56  91 E5        30.16R
$$

NEZ005>010-023>029-035>040-094-291200-
NORTH CENTRAL NEBRASKA

CITY           SKY/WX    TMP DP  RH WIND       PRES   REMARKS
VALENTINE      CLEAR     61  56  83 W7        30.12S
AINSWORTH      CLEAR     62  61  97 S9        30.15R
BROKEN BOW     MOCLDY    66  64  93 S6        30.16S
O`NEILL        CLOUDY    67  65  91 S6        30.14S
ORD            CLOUDY    64  60  87 CALM      30.12F
THEDFORD       CLEAR     61  59  94 CALM      30.17R
$$

NEZ041-046>049-061>064-073>077-083>087-291200-
SOUTH CENTRAL NEBRASKA

CITY           SKY/WX    TMP DP  RH WIND       PRES   REMARKS
GRAND ISLAND   CLOUDY    66  62  87 N3        30.14R
AURORA         CLOUDY    65  65  98 SE6       30.13S
HASTINGS       CLOUDY    64  62  93 E6        30.15R
HEBRON         PTCLDY    65  64  94 CALM      30.13R
HOLDREGE       MOCLDY    65  63  92 CALM      30.16S
KEARNEY *      CLOUDY    66  61  82 W7        30.13S
YORK           MOCLDY    64  64 100 CALM      30.16R
$$

NEZ011>018-030>034-042>045-291200-
NORTHEAST NEBRASKA

CITY           SKY/WX    TMP DP  RH WIND       PRES   REMARKS
NORFOLK        MOCLDY    66  64  93 SE6       30.13F FOG
ALBION         CLOUDY    66  62  89 CALM      30.15S
BLAIR          CLOUDY    68  66  94 CALM      30.15R
FREMONT        CLOUDY    67  65  94 CALM      30.14F
TEKAMAH        CLOUDY    66  64  93 SE3       30.13F
WAYNE          CLOUDY    67  66  96 S5        30.14S
$$

NEZ050>053-065>068-078-088>093-291200-
SOUTHEAST NEBRASKA

CITY           SKY/WX    TMP DP  RH WIND       PRES   REMARKS
LINCOLN        MOCLDY    70  67  90 SE3       30.14F
OMAHA EPPLEY   CLOUDY    71  66  84 SE5       30.14S
BEATRICE       CLEAR     68  67  98 E5        30.14S FOG
FALLS CITY     PTCLDY    69  68  96 NE3       30.13S
NEBRASKA CITY  CLOUDY    68  68 100 CALM      30.15S
PLATTSMOUTH    CLOUDY    68  68  98 SE6       30.15S
$$

NEZ044-045-051>053-067-291200-
OMAHA AREA

CITY           SKY/WX    TMP DP  RH WIND       PRES   REMARKS
OMAHA EPPLEY   CLOUDY    71  66  84 SE5       30.14S
BLAIR          CLOUDY    68  66  94 CALM      30.15R
FREMONT        CLOUDY    67  65  94 CALM      30.14F
MILLARD        CLOUDY    70  67  91 CALM      30.15R
OFFUTT AFB     CLOUDY    68  68 100 E6        30.14R
PLATTSMOUTH    CLOUDY    68  68  98 SE6       30.15S
WAHOO          FAIR      66  65  95 CALM      30.14S
$$




USA.gov is the U.S. government's official web portal to all federal, state and local government web resources and services.